Location: *
(51.2167°N, 10.0667°E)
Time: 01:23:49
(UTC+00:00)

Meteor 2-13 Rocket - Pass Details

Date: 12 December 2019
Orbit: 936 x 957 km, 82.5° (Epoch: 28 January)

Event Time Altitude Azimuth Distance (km) Brightness Sun altitude
Rises 18:03:32 0° 186° (S) 3,586 7.6 -25.5°
Reaches altitude 10° 18:05:59 10° 185° (S) 2,647 6.9 -25.9°
Maximum altitude 18:12:03 84° 99° (E) 954 4.3 -26.8°
Enters shadow 18:14:13 43° 15° (NNE) 1,306 5.0 -27.2°
